Location: Mount Lemmon
(32.4432°N, 110.7577°W)
Time: 14:37:42
(UTC-07:00)

OTV 5 (USA 277) - Visible Passes

Search period start: 19 June 2018 00:00
Search period end: 29 June 2018 00:00
Orbit: 313 x 320 km, 54.5° (Epoch: 18 June)

Date Brightness Start Highest point End Pass type
(mag) Time Alt. Az. Time Alt. Az. Time Alt. Az.
19 Jun ? 03:49:47 10° NW 03:52:29 79° NE 03:55:10 10° SE visible
19 Jun ? 20:07:17 10° W 20:09:00 15° NW 20:10:43 10° N visible
20 Jun ? 02:31:03 10° N 02:31:49 12° NNE 02:31:49 12° NNE visible
